Regional Weather Roundup
Issued by NWS

Home | Current Version | Previous Version | Text Only | Print | Product List | Glossary On
Versions: 1 2 3 4 5 6 7 8 9 10 11 12 13 14 15 16 17 18 19 20 21 22 23 24 25 26 27 28 29 30 31 32 33 34 35 36 37 38 39 40 41 42 43 44 45 46 47 48 49 50
000
ASUS43 KDMX 221507
RWRIA

WEATHER ROUNDUP FOR IOWA
NATIONAL WEATHER SERVICE DES MOINES IA
900 AM CST SAT NOV 22 2014

NOTE: "FAIR" INDICATES FEW OR NO CLOUDS BELOW 12,000 FEET WITH NO
SIGNIFICANT WEATHER AND/OR OBSTRUCTIONS TO VISIBILITY.

* - THESE STATIONS ARE NOT NWS STATIONS...THUS NOT UNDER NWS
QUALITY CONTROL.  THEY ALSO DO NOT REPORT WEATHER SUCH
AS PRECIPITATION OR FOG.

IAZ001>003-012>014-020>022-031>034-043>046-221600-
   NORTHWEST IOWA

CITY           SKY/WX    TMP DP  RH WIND       PRES   REMARKS
CARROLL *      FOG       39  39 100 SW18G26   29.81F VSB 3/4 WCI  30
CHEROKEE *     FOG       36  36 100 SW12      29.80S VSB 1   WCI  27
DENISON *      FOG       37  37 100 SW8G17    29.80F VSB 1/4 WCI  31
LE MARS *      FOG       36  36 100 S12       29.77F VSB 1   WCI  27
ORANGE CITY *  FOG       36  36 100 S10       29.76F VSB 1/4 WCI  28
SHELDON *      FOG       34  34 100 SW12G17   29.75F VSB 0   WCI  25
SIOUX CITY     CLOUDY    38  35  89 S9        29.80F FOG     WCI  31
SPENCER        FOG       35  34  96 SW14      29.79S VSB 1/2 WCI  26
STORM LAKE *   FOG       36  36 100 SW13G20   29.80F VSB 0   WCI  27
$$

IAZ055>058-069>071-079>083-090>094-221600-
   SOUTHWEST IOWA

CITY           SKY/WX    TMP DP  RH WIND       PRES   REMARKS
ATLANTIC *     FOG       39  39 100 S10       29.84F VSB 0   WCI  32
AUDUBON *      FOG       39  36  87 S10       29.84F VSB 1/2 WCI  32
CLARINDA *     FOG       43  43 100 S13       29.91S VSB 3/4
COUNCIL BLFS * FOG       39  39 100 S12       29.83F VSB 0   WCI  32
CRESTON *      CLOUDY    41  41 100 S12       29.89F FOG
HARLAN  *      FOG       37  37 100 S8        29.87F VSB 1/4 WCI  31
LAMONI         CLOUDY    43  42  97 SW9       29.92F FOG
RED OAK *      FOG       41  41 100 S12G17    29.87F VSB 1/2
SHENANDOAH *   FOG       41  41 100 S13       29.89F VSB 3/4
$$

IAZ047>049-059>061-072>074-084-221600-
   CENTRAL IOWA

CITY           SKY/WX    TMP DP  RH WIND       PRES   REMARKS
AMES           CLOUDY    40  38  93 SW10      29.86F FOG     WCI  33
ANKENY *       CLOUDY    43  41  93 SW9       29.88F FOG
CHARITON *     CLOUDY    45  43  93 SW12G20   29.91F
DES MOINES     CLOUDY    43  40  89 S13       29.88F FOG
GRINNELL*      FOG       41  41 100 S10       29.89F VSB 1/2
KNOXVILLE *    CLOUDY    45  43  93 SW10      29.89F FOG
MARSHALLTOWN   CLOUDY    39  38  96 SW10      29.86F FOG     WCI  32
PELLA *        CLOUDY    45  43  93 SW5       29.91F FOG
PERRY *        CLOUDY    41  41 100 S10       29.84F FOG
$$

IAZ004>006-015-016-023>025-035-036-221600-
   NORTH CENTRAL IOWA

CITY           SKY/WX    TMP DP  RH WIND       PRES   REMARKS
ALGONA *       FOG       36  36 100 S12       29.81R VSB 0   WCI  27
CLARION *      FOG       36  36 100 SW15      29.83R VSB 0   WCI  26
ESTHERVILLE    FOG       34  34 100 SW14      29.78S VSB 1/2 WCI  25
FORT DODGE *   CLOUDY    36  36 100 S10       29.82F VSB 1/2 WCI  28
MASON CITY     FOG       34  34 100 S8        29.83F VSB 1/4 WCI  27
FOREST CITY *  FOG       36  36 100 S7        29.81F VSB 1/4 WCI  30
IOWA FALLS *   SNOW      36  36 100 S12       29.84F VSB<1/4 WCI  27
$$

IAZ007>011-017>019-026>030-037>042-050>054-066-221600-
   NORTHEAST IOWA

CITY           SKY/WX    TMP DP  RH WIND       PRES   REMARKS
CEDAR RAPIDS   FOG       38  38 100 S8        29.90F VSB 1/16WCI  32
CHARLES CITY * FOG       36  36 100 S9        29.85S VSB 0   WCI  29
CLINTON *      CLOUDY    43  39  87 S9        29.98R VSB 1
DECORAH *      FOG       36  36 100 S7        29.84S VSB 1/2 WCI  30
DUBUQUE        FOG       34  34 100 S8        29.90F VSB<1/4 WCI  27
MONTICELLO *   FOG       36  36 100 S7        29.90F VSB 0   WCI  30
OELWEIN *      FOG       34  34 100 S10       29.86F VSB 0   WCI  26
WATERLOO       FOG       35  35 100 S10       29.86F VSB 3/4 WCI  27
$$

IAZ064-065-067-068-078-221600-
   EAST CENTRAL IOWA

CITY           SKY/WX    TMP DP  RH WIND       PRES   REMARKS
DAVENPORT      CLOUDY    42  40  92 S10       29.95F FOG
IOWA CITY      FOG       42  42 100 S10       29.94F VSB 1/4
MT. PLEASANT * CLOUDY    46  45  93 S10       29.95S
MUSCATINE *    CLOUDY    46  45  93 S14       29.94F
QUAD CITIES    CLOUDY    45  41  86 S9        29.94F FOG
$$

IAZ062-063-075>077-085>089-095>099-221600-
   SOUTHEAST IOWA

CITY           SKY/WX    TMP DP  RH WIND       PRES   REMARKS
BURLINGTON     CLOUDY    48  43  82 S10       29.96S
FAIRFIELD *    CLOUDY    45  43  93 S8        29.93S
FORT MADISON *   N/A     52  46  82 S10       29.96F
KEOKUK *       CLOUDY    50  45  81 S14       29.95F
OSKALOOSA *    FOG       43  41  93 SW7       29.92S VSB 1/4
CENTERVILLE *  CLOUDY    48  48 100 SW9       29.94R FOG
OTTUMWA        FOG       45  44  97 SW7       29.91F VSB 1/2
WASHINGTON *   FOG       45  45 100 S12       29.93S VSB 3/4
$$

ABBREVIATIONS USED IN REMARKS
   TC - TEMPERATURES IN CELSIUS
  WCI - WIND CHILL INDEX
   HX - HEAT INDEX
  VSB - VISIBILITY
$$




USA.gov is the U.S. government's official web portal to all federal, state and local government web resources and services.